Theta_e
345 346 347 346 339 334 339 343 346 343 336 330 328 328 328 328 328 330 333 335 337 337 336 329 322 325 329 330 331 330 330 331 331 331 331 332 334 336 338 339 341 342 341 341 342 341 341 341 340 338 338 336 334 333 331 331 331 332 334 338 341 342 342 342 342 342 342 342 342 341 341 342 342 341 342 342 340 340 340 338 337 336 334 332 333
344 345 346 347 344 339 339 340 342 340 334 330 329 329 329 328 329 331 333 335 336 336 336 327 320 324 328 330 331 331 331 330 330 331 334 336 337 340 342 341 342 342 341 341 342 342 341 341 340 338 339 337 335 333 332 331 330 329 329 331 334 337 340 340 341 341 341 341 341 341 341 342 341 340 340 340 340 339 339 338 337 336 336 334 333
345 344 344 345 346 345 343 339 338 335 332 331 330 330 330 330 329 332 335 336 336 336 336 326 318 322 327 329 331 331 330 330 331 332 336 339 339 341 343 342 341 341 341 341 342 342 341 341 341 339 339 338 336 334 332 330 329 328 327 326 326 329 331 334 337 339 339 341 341 340 340 341 340 340 340 340 340 340 339 339 338 337 336 335 334
345 345 345 345 346 346 346 345 341 335 331 332 333 332 330 331 330 332 335 338 338 336 336 327 317 320 325 328 330 331 331 331 331 333 337 340 340 342 343 342 341 341 341 341 341 342 341 341 341 340 339 337 336 334 331 329 328 327 327 329 330 329 327 327 329 332 336 338 338 337 337 339 339 340 340 340 340 340 340 340 338 338 337 337 336
346 346 346 345 345 346 345 345 343 337 334 336 339 337 332 333 333 334 336 339 339 336 335 327 318 319 323 327 330 330 332 331 332 334 338 341 342 343 343 342 341 341 341 341 341 341 341 341 341 341 339 337 335 334 332 328 327 328 331 336 337 336 335 333 329 328 333 334 333 332 334 336 338 338 338 339 340 340 340 340 340 339 338 338 338
345 345 344 342 343 344 343 343 341 338 337 338 342 343 339 338 338 339 339 340 340 337 331 324 320 321 324 329 331 331 332 332 332 336 339 342 343 343 342 342 341 341 341 340 340 340 340 340 340 340 339 337 335 334 332 329 330 334 337 339 340 339 338 338 334 328 329 330 328 329 333 335 337 338 337 337 338 338 339 340 340 340 340 339 339
344 343 341 341 342 342 342 342 340 339 339 339 341 344 345 343 344 344 343 342 341 337 329 323 323 324 326 329 332 333 333 332 333 338 341 342 342 342 342 341 341 341 341 339 339 339 339 339 339 339 339 336 333 332 331 330 333 338 340 340 339 339 338 338 337 332 328 326 326 328 332 335 337 337 336 337 337 338 339 340 340 340 340 339 339
340 336 335 338 340 339 337 337 338 340 338 336 340 344 345 346 346 345 344 343 341 337 330 326 326 327 328 328 331 332 333 333 334 340 342 341 340 338 341 342 341 341 339 337 337 337 338 338 338 338 337 334 331 330 330 331 334 337 338 339 339 339 339 338 338 336 332 328 327 328 331 334 335 336 336 336 337 337 337 338 340 339 339 339 339
333 331 332 336 338 337 334 334 338 342 338 332 338 343 343 344 345 345 345 343 342 338 333 331 330 330 331 330 329 330 332 335 337 340 339 340 337 334 339 341 340 340 338 337 337 336 337 337 337 336 333 330 329 328 329 332 335 335 336 336 337 337 338 337 337 337 335 331 328 327 329 332 334 336 336 334 336 336 337 337 338 339 339 339 338
331 332 332 332 333 334 332 333 336 339 340 336 338 342 342 342 344 346 345 343 342 340 337 334 333 333 333 332 331 330 331 335 339 339 338 337 332 332 339 341 339 339 339 338 337 336 335 336 336 333 329 328 328 327 328 332 334 334 334 334 335 336 337 337 337 337 336 332 330 331 329 330 334 338 336 334 334 335 336 337 337 338 338 339 339
332 331 330 329 329 330 330 330 330 331 336 340 341 342 343 342 343 345 345 344 343 342 340 336 334 334 334 332 333 333 332 334 338 338 336 332 329 335 340 341 341 341 339 339 339 337 335 333 332 330 328 327 327 328 329 331 333 334 334 335 336 336 337 337 337 337 337 333 331 334 334 333 335 338 337 335 334 334 336 336 337 338 338 338 337
333 331 330 333 332 330 330 329 329 328 332 340 342 342 343 342 343 344 344 344 343 343 342 339 337 335 335 334 335 336 336 336 337 336 333 328 331 339 341 342 342 341 340 340 340 339 336 332 329 328 328 327 327 328 330 332 333 334 335 337 337 337 336 336 336 337 337 334 332 334 336 336 336 338 337 336 336 335 335 335 336 336 336 337 337
333 331 332 337 337 335 332 330 329 330 332 340 343 342 343 343 342 343 344 344 343 343 342 341 339 338 337 336 337 338 338 338 337 335 332 329 335 341 342 343 343 341 341 340 340 339 337 334 329 327 327 327 327 328 331 333 335 335 336 337 337 336 336 336 336 337 338 337 333 334 336 337 338 338 337 337 336 335 334 333 333 333 333 335 337
331 331 334 337 339 337 334 333 331 331 335 341 343 342 343 342 341 342 343 344 343 342 342 341 340 339 338 337 338 338 339 339 338 335 330 331 338 341 341 342 342 342 341 340 339 337 337 336 332 328 325 326 327 329 332 334 335 335 336 337 336 335 336 336 337 337 339 337 333 334 337 338 338 337 337 337 335 333 333 333 333 332 331 333 335
330 331 332 332 337 338 335 334 332 333 337 339 341 341 342 341 340 340 341 343 343 342 341 341 340 338 337 337 337 337 339 339 339 337 332 335 340 341 341 341 341 342 341 339 338 337 337 337 335 330 326 325 326 329 332 335 335 335 336 337 336 335 336 336 337 338 338 336 333 334 337 338 337 338 337 335 332 332 332 333 334 334 332 331 332
331 332 333 332 336 338 337 337 335 335 336 338 339 339 340 340 339 338 340 342 342 342 341 340 340 335 333 335 335 335 337 339 340 338 337 340 342 341 341 341 342 342 340 339 338 337 337 337 335 332 327 325 326 328 332 334 335 335 336 336 336 335 336 337 337 337 336 334 333 334 336 338 337 337 337 334 331 332 333 334 334 335 334 331 329
334 334 335 335 336 339 338 336 336 336 335 335 336 336 337 337 337 338 339 340 339 339 339 338 336 331 332 335 335 335 336 338 340 338 339 342 342 342 342 341 341 341 340 339 338 338 338 337 335 332 328 326 326 328 331 333 334 335 336 337 337 336 336 336 337 336 334 333 333 334 335 338 337 337 336 334 332 332 333 334 334 334 334 333 330
338 337 336 335 336 339 340 338 338 339 337 335 334 333 333 334 336 336 337 338 338 338 337 335 330 329 336 338 338 338 336 337 338 337 339 342 341 342 341 341 341 340 339 339 339 339 337 336 334 331 328 326 326 327 330 333 334 335 336 338 337 336 336 336 335 334 332 331 333 334 335 337 337 337 336 334 332 333 333 333 334 334 334 334 333
338 338 338 336 335 338 340 341 341 341 341 339 336 334 333 332 332 332 334 336 337 337 336 332 327 331 339 339 339 338 337 336 334 335 340 341 341 341 341 341 340 339 339 339 340 339 336 335 333 330 328 327 327 328 331 333 334 336 337 337 337 336 336 336 335 334 331 331 333 335 336 337 337 337 336 334 332 332 332 332 333 334 334 334 333
336 336 337 336 336 337 339 341 342 341 341 341 338 337 337 335 330 328 329 333 336 335 335 331 325 331 339 339 340 338 338 336 331 334 340 341 341 341 341 341 340 339 339 339 339 338 336 335 333 330 328 328 328 328 331 333 335 337 337 336 336 336 335 335 335 333 329 330 334 336 336 337 337 336 334 333 332 333 333 332 333 334 334 334 334
337 336 336 337 337 337 338 339 339 340 340 340 340 339 338 335 331 328 327 327 331 333 333 331 327 332 339 340 340 339 337 335 331 334 339 340 340 340 340 341 339 338 339 339 338 337 337 335 334 332 330 329 328 329 331 334 336 337 336 335 336 336 335 335 334 333 330 330 334 336 337 336 337 334 331 331 333 334 334 333 335 335 334 334 334
335 335 336 336 337 337 338 338 338 338 338 339 339 339 339 335 330 331 332 329 327 329 331 332 331 334 339 340 340 340 337 335 332 333 337 339 339 340 341 340 339 339 339 338 337 336 337 336 335 334 333 331 329 330 332 334 337 337 336 335 334 335 335 335 334 333 331 330 334 336 337 336 336 332 329 331 333 335 335 335 336 335 334 334 334
334 333 334 335 336 336 336 337 338 337 337 337 337 337 338 337 333 334 337 336 331 329 330 332 334 336 339 340 339 339 338 336 334 332 334 336 338 339 340 340 339 339 338 337 336 335 336 337 335 335 335 333 331 332 333 335 337 337 336 335 334 334 334 334 333 333 330 330 333 336 336 336 335 331 330 332 333 335 335 335 335 336 335 333 333
332 330 330 331 333 334 335 336 336 337 337 337 337 336 337 338 337 337 337 339 337 334 333 333 335 337 339 340 339 339 338 337 336 333 334 335 336 338 340 341 340 340 339 337 336 336 336 337 336 336 335 334 333 332 334 336 338 338 337 336 334 334 333 333 332 331 330 331 334 336 336 335 334 332 331 332 334 334 335 336 335 335 335 333 333
329 328 326 326 326 329 332 334 334 335 336 336 336 336 338 338 338 339 338 339 340 337 336 335 335 337 340 340 339 340 340 340 338 335 337 335 335 337 338 341 341 340 339 337 336 336 335 336 337 336 335 335 334 333 335 336 337 338 337 335 334 333 333 332 331 330 330 332 334 336 335 335 335 333 332 332 333 334 335 335 335 334 334 334 334
325 325 324 323 321 323 327 331 332 334 334 335 336 336 337 338 338 338 338 339 340 339 337 338 337 338 340 341 340 341 341 342 340 337 338 337 334 335 336 338 339 340 338 336 335 334 334 335 335 336 335 336 336 334 335 337 337 337 336 334 333 332 332 332 330 330 331 333 334 335 335 335 335 334 333 333 333 334 334 335 335 334 334 334 334
323 323 323 323 320 319 321 325 329 331 332 333 334 335 335 336 337 337 338 338 339 339 338 339 339 339 340 341 341 342 341 341 341 339 339 340 337 333 334 337 338 339 338 336 335 334 334 334 334 334 335 337 337 336 336 336 337 337 335 333 332 331 331 331 330 329 332 334 334 334 334 335 335 335 334 333 334 334 334 335 335 334 335 334 333
322 322 323 324 322 320 318 320 324 327 329 331 332 334 334 335 336 337 337 338 338 339 339 339 339 338 338 340 341 341 342 341 340 341 341 341 339 334 333 335 337 338 338 336 335 334 334 335 335 334 336 339 339 338 337 337 338 337 335 333 331 331 331 331 329 329 332 334 335 334 334 335 335 334 334 333 333 333 334 335 335 335 335 334 333
320 321 322 322 321 320 319 318 321 323 324 327 329 331 332 334 335 336 337 337 337 338 338 339 338 337 337 338 340 341 342 341 339 341 342 341 341 338 335 335 336 338 338 337 334 335 336 338 339 337 338 340 340 340 339 338 338 337 336 335 333 331 331 330 328 328 331 333 334 334 333 334 335 334 334 333 333 334 334 334 335 335 335 334 334
319 319 319 319 319 320 319 319 320 321 320 323 325 327 329 331 333 334 335 336 336 337 338 338 338 338 337 337 338 340 342 341 339 340 342 341 341 340 339 336 336 338 338 336 335 335 338 340 340 339 339 339 340 340 340 338 337 336 335 336 333 331 331 330 328 328 330 332 334 334 334 333 334 334 334 334 333 334 334 334 335 335 335 334 335
318 318 318 317 317 319 319 318 320 320 319 320 322 324 326 328 330 332 333 334 335 336 337 337 337 338 337 337 337 339 341 340 340 340 341 341 341 341 341 339 338 338 338 336 336 336 338 339 338 338 337 338 339 339 339 338 337 336 335 334 332 331 331 330 328 328 330 331 333 335 334 333 333 334 334 334 334 334 335 334 335 335 335 335 335
318 318 318 317 317 318 318 317 318 319 319 320 320 322 323 326 328 330 332 334 334 334 336 336 336 337 337 337 337 338 340 340 340 340 339 339 340 341 341 341 339 339 339 337 337 337 338 338 337 336 336 338 339 338 336 337 336 335 335 334 332 331 331 329 328 328 329 331 333 334 334 333 333 333 333 334 334 334 335 335 334 335 335 335 335
318 318 318 317 316 317 318 317 317 317 317 318 319 320 322 324 326 327 331 333 333 333 334 335 335 336 337 337 337 338 339 339 339 340 338 336 338 341 340 340 340 340 340 339 339 338 338 338 337 335 335 337 339 337 336 336 336 335 336 335 332 331 331 330 328 328 329 330 332 333 333 333 333 333 334 334 334 334 335 335 334 335 335 335 335
317 318 317 317 316 316 317 317 316 317 317 316 317 319 320 322 323 324 327 329 331 332 333 334 335 335 336 336 336 337 338 339 339 340 340 337 337 339 339 339 340 341 341 340 339 338 337 336 336 335 335 337 337 337 336 336 335 335 335 335 332 330 331 330 329 328 329 330 331 331 332 332 332 333 334 334 334 334 335 335 335 335 335 335 334
317 317 317 316 315 315 316 316 316 316 317 316 315 316 318 320 322 323 324 326 329 330 331 332 334 334 335 335 336 336 337 338 338 339 340 339 337 337 338 338 338 339 340 340 339 338 337 335 335 335 335 336 336 336 336 335 335 335 335 335 333 331 330 330 330 329 328 329 330 330 330 331 332 333 333 334 333 333 334 334 334 334 334 335 334
317 316 316 316 316 315 315 315 316 317 317 316 314 314 315 318 321 322 323 325 327 329 330 332 333 333 334 335 335 336 336 337 337 338 338 339 339 337 336 336 336 336 338 339 339 338 338 336 334 333 335 335 335 335 335 335 335 334 335 335 334 333 331 330 331 330 328 329 329 329 328 329 330 331 332 333 333 333 333 334 334 334 334 334 334
316 315 315 316 316 315 315 314 315 317 316 315 314 314 315 318 319 321 322 324 326 328 329 330 331 332 333 334 334 335 336 336 337 337 337 338 339 339 337 336 335 335 337 338 338 337 337 335 333 333 335 335 335 334 334 335 335 334 335 335 335 335 332 331 332 331 329 329 328 328 327 327 329 330 331 331 332 332 332 332 333 333 334 334 334
316 314 315 316 315 315 314 314 315 316 316 314 314 314 315 317 318 320 322 323 325 328 328 326 327 329 331 332 333 334 335 335 336 336 336 337 337 338 338 337 336 334 335 337 337 337 335 334 333 334 334 335 335 334 334 335 335 334 334 334 335 335 333 331 332 331 330 328 327 326 326 326 327 329 329 329 330 331 331 331 332 333 333 333 333
316 314 315 315 314 314 314 314 315 315 314 314 313 313 315 316 317 319 322 323 324 326 328 325 324 326 327 330 331 332 333 334 335 336 336 336 336 337 338 338 337 334 334 337 337 336 336 335 334 333 334 335 335 335 335 335 334 334 335 334 335 336 334 332 332 331 330 329 328 326 325 325 326 328 328 328 328 328 328 329 330 332 332 332 333
315 315 315 314 314 314 313 314 315 315 314 313 313 313 314 316 316 318 320 322 323 324 325 325 323 324 325 327 329 330 331 333 334 335 335 336 336 337 337 338 338 336 334 336 336 336 336 336 335 334 335 334 334 335 335 335 335 334 334 334 334 336 336 334 332 332 332 332 331 328 327 326 326 328 328 328 328 328 327 326 327 329 331 332 332
314 315 315 314 313 313 313 314 315 314 313 313 313 313 314 315 316 317 319 320 322 322 323 325 323 322 324 326 327 329 329 330 332 334 335 335 336 336 337 338 337 335 335 335 335 335 334 335 336 335 335 333 333 335 336 335 334 334 333 334 334 335 336 336 334 333 332 333 333 332 331 329 329 330 329 328 329 328 327 327 326 327 329 330 331
314 314 315 314 313 313 313 314 314 313 313 313 312 312 313 314 315 316 318 319 320 322 322 324 323 321 324 325 326 327 328 328 329 331 333 334 334 336 336 337 336 335 335 334 334 335 334 333 334 334 335 335 334 335 335 334 334 333 333 334 335 335 335 336 336 335 334 335 334 334 334 332 332 333 331 330 330 328 328 329 328 327 327 328 329
314 314 315 314 313 313 313 313 313 313 312 312 312 312 313 314 315 316 317 318 319 320 321 324 323 321 322 324 325 326 327 327 327 328 331 332 334 335 335 336 335 335 335 335 334 334 333 333 333 333 334 336 336 334 334 334 334 334 334 336 337 336 336 335 335 336 335 336 335 335 334 333 333 334 333 332 333 332 330 330 330 328 327 328 328
314 314 314 313 313 313 313 313 313 312 312 312 311 312 314 313 314 316 316 317 318 319 320 322 322 320 322 324 325 326 327 326 327 327 328 331 333 334 335 335 335 334 334 335 334 333 333 333 332 333 334 336 335 334 334 334 334 335 336 337 335 336 338 336 335 335 334 334 335 335 335 334 334 335 333 333 334 334 333 332 332 330 329 330 329
314 314 313 313 313 313 313 313 312 312 312 312 311 312 314 314 314 315 315 316 317 318 319 321 321 320 321 323 324 326 327 327 327 327 327 329 331 333 334 334 334 335 334 333 334 333 332 332 332 332 333 335 336 334 334 334 334 334 335 336 335 336 339 337 334 335 333 333 334 336 335 334 335 335 334 334 335 335 335 334 334 332 332 331 330
314 313 313 313 313 313 312 312 312 312 312 312 312 312 313 314 314 314 315 316 316 317 318 319 321 320 320 322 323 324 326 327 328 327 328 329 331 332 333 334 335 335 334 333 334 333 332 332 332 332 332 333 335 335 333 333 333 333 334 335 335 337 339 336 335 335 334 334 335 335 333 333 336 337 336 336 336 335 336 335 335 334 333 333 331
314 313 312 312 312 312 312 312 312 311 311 311 312 312 313 314 314 314 315 315 315 316 317 319 320 320 319 321 322 323 325 327 328 328 329 330 331 332 333 334 334 335 335 334 334 333 332 332 332 331 332 332 334 335 334 333 334 333 335 337 336 337 338 336 336 338 337 336 336 335 334 334 336 337 337 337 336 336 336 336 336 335 334 334 333
314 313 312 312 312 312 311 312 312 311 311 311 312 312 313 313 313 314 314 314 315 316 316 318 318 318 319 319 321 323 324 325 328 329 330 331 331 332 333 333 334 334 335 335 335 334 332 333 332 332 332 332 333 335 334 335 335 334 335 337 336 337 339 337 337 338 338 338 337 336 336 335 335 336 337 337 337 337 337 336 337 337 336 335 335
313 312 312 312 311 311 311 311 311 311 311 311 311 312 313 313 313 314 314 314 315 315 316 317 317 317 318 318 319 322 322 323 327 330 330 331 330 331 333 333 334 334 334 335 335 334 333 333 333 333 333 333 333 334 334 336 336 335 336 338 337 338 339 338 338 336 335 338 339 337 336 336 335 335 336 337 338 337 337 337 337 337 337 336 336
313 312 311 311 311 311 310 310 311 311 311 311 311 311 312 313 313 314 314 314 315 315 315 316 316 316 317 317 318 321 322 322 325 328 330 330 330 331 331 332 333 333 333 334 333 332 333 333 333 333 333 333 334 334 334 336 337 336 337 337 338 339 339 338 338 337 335 336 338 336 334 335 336 335 336 336 337 338 338 338 338 338 337 337 336
313 312 311 311 311 310 310 310 311 312 312 311 311 311 311 312 313 314 314 314 314 314 315 315 315 315 316 317 317 319 322 321 322 325 328 329 330 330 330 329 331 332 332 333 332 332 333 333 333 333 333 334 334 334 334 335 337 338 338 337 337 338 338 338 338 338 336 335 338 337 333 335 336 335 336 337 337 338 338 338 338 338 338 337 337
Wind_Speed
7 6 5 8 10 16 18 15 11 9 10 11 14 14 14 14 14 15 14 14 14 14 15 16 18 21 24 24 25 24 23 22 21 20 20 19 20 20 20 21 21 21 20 19 19 18 18 18 18 18 18 19 19 20 21 21 21 20 20 19 19 19 19 19 19 19 20 19 19 19 20 19 19 19 19 18 18 18 19 19 20 20 19 18 18
5 5 3 6 8 13 19 17 12 9 8 9 12 12 13 13 14 14 13 13 12 13 14 15 18 20 22 23 23 22 22 21 20 19 19 19 19 20 20 20 20 20 19 18 18 17 17 17 17 18 18 18 19 20 20 20 21 21 20 20 19 19 19 19 18 19 18 18 19 19 18 19 19 19 19 19 19 18 19 19 20 21 20 19 19
4 3 6 8 7 8 15 18 16 12 9 8 9 10 11 11 12 13 13 12 12 13 14 15 17 19 20 21 21 20 20 20 19 19 18 18 18 18 19 19 20 20 19 18 17 17 17 17 16 17 17 18 19 19 20 20 21 22 22 21 21 20 19 18 18 18 17 17 18 18 18 18 18 18 18 18 18 18 18 18 19 20 19 19 20
5 6 7 9 9 9 11 13 15 15 12 9 7 8 8 9 11 11 12 12 12 13 14 15 17 18 19 19 19 19 19 19 19 18 18 17 17 18 18 18 19 19 18 17 17 17 17 17 16 16 17 17 18 19 20 20 22 22 23 22 21 21 20 18 17 17 17 17 17 18 18 18 18 17 17 17 17 17 17 17 18 18 19 19 19
7 7 7 9 10 10 10 9 10 12 12 11 8 7 7 8 9 10 10 11 12 13 13 15 16 18 18 18 18 18 17 17 18 17 17 17 17 17 17 17 18 18 17 17 17 17 17 17 16 16 16 16 18 19 19 20 22 23 22 20 19 20 20 18 16 16 17 17 17 18 18 18 17 16 17 17 17 17 17 17 17 17 18 18 19
9 10 9 9 10 9 9 8 9 9 10 10 9 7 6 7 8 9 9 10 12 12 13 15 16 17 17 17 17 17 16 16 16 17 18 17 17 16 16 17 17 17 17 17 17 17 16 16 15 15 15 16 18 18 19 19 21 21 20 19 17 18 17 16 16 16 16 16 16 18 18 18 18 16 17 17 17 17 16 17 16 16 17 18 18
12 13 11 10 11 10 9 8 8 9 9 9 9 6 5 6 7 8 8 9 11 12 14 14 15 15 16 16 16 15 15 16 15 17 18 17 16 15 16 17 16 16 16 16 16 16 15 15 15 14 14 16 17 18 18 19 20 19 18 17 16 15 14 14 16 15 15 16 16 18 18 18 18 17 16 17 17 17 16 16 16 16 16 17 18
15 15 13 12 12 11 10 9 8 8 9 9 8 5 4 4 5 6 7 9 10 11 13 14 13 13 14 15 15 14 14 15 15 17 17 16 15 14 16 16 16 15 15 15 14 14 14 14 14 13 13 15 17 18 18 19 20 19 17 16 14 13 12 14 15 13 13 15 16 17 18 18 17 17 16 16 17 17 16 16 15 16 16 16 18
15 15 14 12 11 10 10 9 8 6 7 8 8 4 3 2 4 6 7 8 9 10 11 12 11 11 12 13 14 14 13 14 15 16 16 15 14 15 16 16 15 15 14 14 14 13 13 13 13 12 14 15 17 18 19 19 20 19 17 15 13 12 11 12 14 13 12 14 15 16 17 17 17 16 16 16 17 17 16 16 16 15 16 16 18
14 14 13 13 12 10 10 9 8 6 5 6 6 4 3 3 4 6 7 7 8 8 9 10 10 10 11 11 12 13 13 13 13 14 14 13 14 17 17 16 15 14 13 13 13 13 12 12 12 12 14 16 17 18 19 19 19 17 15 13 11 10 10 12 14 14 12 13 15 15 15 15 16 15 15 16 17 17 16 16 16 15 15 16 17
15 14 13 13 13 12 12 11 10 7 5 4 3 4 4 5 4 5 7 6 6 7 7 8 8 9 10 11 11 11 12 13 13 13 12 13 16 19 18 16 15 14 13 12 12 12 11 12 11 12 14 15 16 17 18 18 17 16 14 12 9 8 9 14 17 15 13 13 14 15 14 14 15 15 15 16 16 16 16 15 15 14 15 16 17
14 13 10 9 10 11 11 11 11 8 4 2 1 4 5 6 5 5 7 6 6 6 6 6 7 8 9 9 10 11 11 12 12 11 12 14 18 19 17 15 14 13 13 12 12 11 11 11 12 12 13 15 16 16 17 17 16 15 13 12 9 8 10 17 18 15 14 13 14 14 15 15 14 15 15 15 16 16 15 15 15 15 15 16 16
14 13 9 5 6 8 8 7 7 5 2 1 1 4 7 7 5 5 7 6 6 6 5 5 6 7 8 9 9 10 10 10 10 10 11 16 19 17 16 14 13 13 12 12 11 10 10 10 11 12 13 14 15 16 17 16 15 14 13 13 12 10 13 18 17 16 16 14 13 15 15 14 13 14 14 15 16 16 15 15 15 15 15 15 15
13 11 6 2 4 3 5 5 5 5 3 4 3 3 6 7 5 5 6 7 7 6 5 5 6 7 8 9 9 9 9 9 9 8 11 17 18 16 15 14 13 13 12 11 10 9 9 9 10 10 12 13 14 15 16 15 14 14 13 14 14 14 17 18 17 17 17 14 14 16 15 14 14 15 15 16 16 16 15 15 15 15 15 15 14
10 8 5 2 4 4 1 1 3 3 4 6 4 3 5 7 6 5 5 6 7 6 6 6 5 6 8 9 9 9 8 9 8 7 12 17 17 15 15 14 13 12 11 10 9 9 8 8 8 9 10 11 13 14 14 13 13 12 13 14 15 18 19 18 17 17 15 14 15 16 15 15 15 15 15 16 16 16 15 15 15 15 14 15 15
8 6 6 3 2 5 3 2 1 1 3 4 4 4 4 5 5 5 5 5 6 5 5 6 5 6 7 8 9 9 9 9 7 7 12 14 14 15 15 14 13 11 11 9 8 8 7 7 7 8 8 10 12 12 13 12 11 11 11 13 14 17 19 18 18 16 14 15 16 16 16 15 15 15 15 16 16 16 16 15 15 15 15 15 15
7 6 6 5 2 4 4 2 2 3 3 3 3 2 3 3 3 4 5 5 5 5 5 5 5 6 7 8 8 8 8 8 8 8 11 12 13 15 14 14 12 11 10 8 7 7 7 7 7 7 7 9 11 11 12 11 10 9 10 12 13 16 18 18 17 15 13 15 17 16 16 15 15 15 15 16 16 16 16 15 15 15 15 15 15
8 7 6 6 4 4 5 3 4 5 5 5 3 2 1 1 2 3 4 5 5 4 4 4 5 7 7 8 8 8 7 7 8 11 11 10 12 12 12 13 12 11 9 8 7 7 7 7 7 7 7 9 10 11 11 11 9 9 10 11 13 16 18 17 16 13 12 15 17 17 16 15 15 15 15 16 16 16 16 15 15 15 14 14 15
10 9 7 7 5 4 5 4 5 5 6 6 6 5 5 4 2 2 2 3 3 3 3 3 5 7 7 7 8 7 7 6 9 13 11 10 11 10 10 11 11 10 9 8 7 7 8 7 7 7 8 9 10 11 11 10 9 9 10 11 13 16 17 17 15 12 12 15 17 17 16 15 15 15 15 15 16 16 15 15 15 14 14 14 15
14 12 11 9 5 4 6 7 6 6 7 6 6 7 7 7 5 3 1 2 2 2 2 2 4 6 6 7 8 7 7 7 10 13 10 9 9 9 9 9 10 10 9 9 8 8 8 8 8 7 8 9 10 11 11 11 10 10 11 11 13 16 17 17 15 12 12 16 17 16 16 15 16 15 15 15 15 15 15 15 14 14 14 14 14
16 14 13 11 7 7 11 10 9 9 8 7 8 8 8 6 5 4 3 1 0 2 1 1 3 6 6 5 7 8 7 7 11 12 10 8 8 8 9 9 9 9 9 9 8 8 8 8 8 7 7 8 9 11 11 11 10 10 11 11 13 15 16 16 15 13 13 16 17 16 15 15 16 15 15 15 15 15 14 14 14 13 14 14 14
16 15 14 12 10 10 12 11 10 11 9 8 8 9 8 6 3 4 4 3 2 1 1 1 3 5 5 4 6 8 7 7 10 12 10 8 8 7 8 8 8 8 9 9 8 8 7 8 7 7 7 7 8 10 11 11 9 9 10 11 12 14 14 15 14 13 13 15 17 15 15 16 15 15 15 15 15 15 14 14 14 13 14 14 15
15 15 13 12 11 10 10 10 9 8 8 8 8 8 8 6 5 5 4 3 2 2 2 2 4 5 5 4 6 8 8 7 9 11 11 9 8 8 8 8 8 8 9 9 8 8 7 7 7 7 6 7 8 9 10 10 9 8 9 9 10 13 14 14 13 12 13 16 17 15 16 16 15 15 14 14 15 14 14 14 14 13 13 14 15
15 14 13 12 11 10 9 9 8 7 7 6 7 7 6 7 6 6 6 4 2 3 3 3 5 5 5 5 5 7 8 8 8 10 11 11 10 9 9 8 8 8 8 8 8 7 7 7 7 7 7 7 7 9 10 9 8 7 6 6 8 12 13 12 12 12 14 17 17 16 16 16 15 14 14 14 14 13 14 13 14 14 13 14 15
14 14 13 13 12 11 9 8 8 8 9 8 8 8 5 6 7 5 7 6 4 4 4 4 6 6 6 5 5 8 9 9 8 10 11 11 11 10 9 8 7 8 7 7 7 7 6 6 7 8 8 7 7 9 9 8 7 7 5 5 9 13 13 11 11 12 16 17 16 16 17 15 14 14 13 13 13 13 13 13 13 14 14 14 14
14 15 14 14 13 12 10 8 8 8 10 10 9 9 7 6 7 6 6 7 7 6 6 6 7 8 8 7 8 9 9 9 9 11 12 11 12 12 11 9 8 8 8 7 6 6 5 4 5 6 7 7 7 8 9 8 6 6 6 7 10 12 11 11 11 13 17 17 15 16 16 14 14 13 13 12 12 13 13 12 12 13 14 14 14
15 15 15 15 15 15 12 9 9 9 9 9 9 9 10 9 6 6 6 5 6 7 9 8 7 9 10 10 11 10 9 9 10 12 13 12 12 13 13 11 9 9 9 8 6 5 5 3 3 4 6 6 7 8 8 7 5 5 8 10 11 11 10 10 11 13 17 16 14 14 15 14 13 13 13 12 12 12 12 12 11 13 14 15 15
15 15 14 15 17 17 15 12 11 10 10 9 9 9 9 9 8 6 5 6 5 6 9 11 9 8 9 11 12 12 11 10 10 13 14 13 11 12 13 12 10 10 9 9 7 5 5 3 1 3 4 6 7 8 7 6 4 6 10 11 12 11 10 10 11 14 16 15 14 12 13 13 12 12 12 12 12 11 11 11 11 12 13 14 14
16 16 15 15 17 18 18 16 13 12 11 10 10 10 9 8 8 7 7 7 6 5 6 9 11 9 7 10 14 13 12 11 10 14 15 13 11 10 12 13 11 10 10 10 8 6 5 2 2 3 5 6 7 7 8 7 4 6 9 8 10 11 11 11 11 15 16 15 14 12 12 13 12 12 12 11 11 11 11 11 10 11 13 13 14
16 16 15 16 16 16 18 18 15 14 13 12 12 12 11 10 9 9 9 9 8 6 5 6 9 10 8 9 13 14 14 12 10 13 16 13 12 11 11 12 12 11 11 10 9 6 4 2 3 6 7 9 10 9 8 8 5 6 7 7 11 13 12 11 12 15 15 15 14 12 12 13 13 12 12 11 11 11 11 11 10 11 12 14 14
15 16 16 16 16 16 18 18 17 16 14 13 13 12 12 12 10 9 8 9 10 8 6 5 7 8 10 10 11 13 14 13 12 13 16 14 12 12 11 11 11 12 11 10 8 6 5 5 5 6 8 10 10 8 7 9 7 8 9 10 14 15 13 12 12 15 15 15 14 13 13 13 13 12 12 12 11 12 12 12 11 10 12 13 13
15 16 15 16 17 16 17 18 17 16 16 15 14 13 13 13 12 11 9 8 9 10 8 7 6 6 8 10 10 11 13 14 13 13 15 15 14 13 12 11 11 12 11 9 7 6 5 8 7 6 7 7 8 7 8 10 9 10 12 13 16 16 14 13 13 15 15 15 16 15 14 14 13 12 12 12 12 12 11 12 13 12 12 12 13
14 14 14 16 17 16 16 17 17 17 17 16 15 13 13 13 12 13 12 9 9 9 9 8 7 6 7 8 10 11 12 14 14 13 13 14 16 16 14 13 12 12 12 10 9 8 6 7 7 7 5 4 7 10 10 12 11 12 13 14 15 15 15 14 14 15 15 16 17 16 15 15 15 13 12 12 12 12 11 12 13 13 13 13 13
12 12 13 16 17 16 15 16 17 16 17 18 17 14 13 13 13 13 13 11 10 9 9 8 7 7 7 7 9 11 13 14 14 13 12 12 15 17 16 15 15 14 11 10 11 10 7 7 7 7 6 5 7 10 11 13 13 13 14 15 15 15 16 15 14 14 15 17 17 17 16 16 15 14 13 12 12 12 12 12 12 13 13 13 14
12 12 13 14 16 16 15 15 16 15 16 19 20 17 14 13 13 13 14 13 12 11 10 8 7 6 7 8 8 10 11 13 14 13 12 12 14 17 17 16 17 16 11 9 10 10 8 7 7 8 7 7 8 10 10 12 13 14 14 17 17 16 16 14 14 15 15 17 17 16 16 16 15 14 13 13 13 13 12 12 12 13 13 14 14
12 13 13 12 15 16 15 15 15 14 15 18 20 19 14 12 13 12 13 14 14 13 12 9 8 7 6 8 9 10 11 12 14 14 13 14 15 16 16 16 17 17 14 10 9 10 10 8 7 9 9 8 9 10 9 10 12 13 12 16 17 15 15 15 15 16 16 17 17 15 15 15 15 15 14 14 14 14 13 13 12 13 14 14 14
12 14 13 12 13 15 15 16 15 14 15 17 20 19 15 13 13 12 13 13 14 14 14 11 10 9 8 7 8 10 11 11 12 14 14 15 15 16 17 16 16 16 16 14 11 10 11 9 8 9 8 9 11 12 11 10 12 13 11 15 17 14 16 18 16 16 17 18 17 15 14 14 15 15 15 15 15 15 14 14 13 13 14 14 14
12 13 13 13 13 14 14 15 14 13 15 17 18 17 15 13 13 12 13 13 14 13 13 14 13 11 9 8 7 8 10 11 11 12 14 16 16 16 17 17 16 16 16 15 13 11 11 11 11 9 7 8 11 13 14 13 12 12 11 14 15 14 16 19 18 16 16 17 16 15 14 14 14 15 15 15 15 15 14 15 14 14 14 15 15
11 13 12 13 13 13 13 13 12 13 15 16 16 16 15 14 14 13 13 14 15 14 13 16 16 13 11 9 8 7 9 11 12 12 13 15 17 18 18 18 17 17 17 16 14 13 12 12 12 11 8 8 10 12 14 14 12 11 12 14 12 11 15 19 19 17 16 16 15 14 14 14 15 14 14 15 15 14 14 14 15 15 15 15 15
10 12 12 12 12 13 13 13 13 13 15 15 16 16 16 16 16 17 16 16 16 15 13 15 17 15 12 10 8 7 7 9 12 12 12 13 16 18 19 18 17 18 19 18 17 14 13 13 14 13 11 9 8 9 11 13 14 12 11 12 9 7 11 15 17 17 17 16 14 14 14 14 15 15 14 15 15 15 13 14 15 15 16 16 15
10 10 11 12 12 13 13 13 13 14 15 16 16 16 17 18 18 19 19 17 15 15 13 13 17 17 14 12 9 8 8 8 9 11 12 13 15 18 19 19 18 19 20 19 19 17 14 13 15 14 12 12 12 10 11 14 15 12 8 8 6 6 7 10 14 17 16 15 15 15 15 15 16 16 15 16 16 16 14 13 14 15 16 16 16
11 11 10 10 11 12 12 12 12 15 16 16 16 15 15 15 17 17 17 16 15 16 14 12 17 18 15 14 12 9 9 9 8 9 12 12 14 17 19 20 20 20 20 20 19 19 17 15 15 16 13 14 15 13 14 15 13 11 9 6 4 5 5 7 11 16 16 15 17 17 16 18 19 18 17 17 16 16 15 13 13 14 16 16 16
12 12 10 9 11 12 11 11 13 15 16 17 16 15 13 12 14 15 15 15 15 16 15 13 16 19 17 16 15 13 11 10 9 9 11 12 13 15 18 20 20 21 21 20 20 20 19 17 16 17 15 14 14 15 17 15 14 14 9 5 3 3 2 5 7 14 16 15 18 18 16 19 22 21 20 19 17 17 16 13 12 13 14 14 15
12 13 12 10 11 12 11 12 14 16 16 17 17 14 12 11 12 13 13 14 14 17 17 16 19 20 18 17 17 16 13 11 10 9 10 13 13 14 17 20 20 21 22 21 21 21 21 19 18 17 18 17 15 17 19 17 19 18 8 3 3 3 2 4 5 9 13 15 18 19 16 20 25 25 24 22 19 17 16 15 13 12 13 13 15
11 12 12 11 11 11 11 13 14 15 16 16 16 14 14 14 14 15 14 14 15 19 20 19 20 21 20 18 17 18 16 14 13 11 10 12 14 15 17 20 20 20 22 22 21 21 21 21 20 18 19 19 17 19 20 18 19 20 12 6 5 1 2 6 7 7 12 14 17 18 17 20 24 26 26 24 21 19 17 17 15 13 12 13 14
11 11 12 11 10 10 11 13 14 15 15 16 15 14 14 16 16 17 17 17 18 19 20 19 18 19 20 19 19 20 20 17 14 11 9 11 13 14 16 19 20 21 22 23 22 21 21 22 21 20 21 20 19 19 22 22 19 19 17 12 8 7 4 10 7 3 9 13 15 17 19 21 23 24 25 24 23 21 20 18 17 16 14 13 14
11 11 11 10 10 10 11 12 13 14 15 15 15 13 13 15 16 16 16 16 17 18 18 17 17 17 18 19 21 22 23 21 13 8 7 9 12 13 15 18 21 22 22 24 24 22 22 22 21 22 21 22 23 21 24 24 20 21 19 14 13 13 7 14 9 2 5 8 13 17 20 21 22 23 24 24 23 22 21 20 18 17 16 14 14
12 10 10 10 9 9 10 11 12 13 14 15 14 13 12 14 15 15 15 15 15 16 17 17 17 17 17 19 22 23 25 23 14 8 5 4 9 12 14 17 21 24 24 25 24 23 23 23 22 22 22 24 26 24 27 27 23 24 22 17 17 12 9 15 14 10 5 3 7 12 16 19 20 23 23 23 24 23 21 21 19 18 18 16 16
10 9 9 9 9 9 10 10 11 11 13 14 13 12 12 12 14 14 14 15 14 15 16 17 17 18 18 19 22 23 24 25 18 10 5 3 5 10 14 18 23 26 25 23 24 24 25 24 22 23 23 25 27 25 28 30 28 25 23 21 16 7 8 12 13 13 5 3 4 4 10 14 15 21 23 22 24 24 22 20 20 20 19 18 18
9 9 9 8 8 8 9 10 9 8 11 12 11 12 12 11 12 13 14 14 14 15 16 17 18 19 19 20 22 22 22 24 21 13 5 2 4 8 13 15 20 27 26 22 22 22 23 24 22 23 24 25 26 26 28 30 29 27 23 22 16 9 8 7 9 12 6 3 4 4 10 13 10 16 23 23 23 23 23 21 20 20 21 21 20
9 9 8 7 7 7 8 9 7 6 10 12 10 11 12 11 11 11 12 13 13 15 16 16 18 19 19 20 22 20 18 21 23 18 10 4 2 5 9 9 10 18 21 21 22 21 21 23 22 23 24 25 27 27 28 29 28 27 24 22 19 14 11 9 10 12 8 3 3 4 10 15 13 13 18 23 24 23 22 21 21 21 21 21 21
Wind_Direction
55 77 91 90 100 108 98 92 91 92 103 103 102 101 101 102 103 105 105 104 103 104 105 108 114 117 116 116 115 113 112 111 110 109 109 108 108 108 109 110 109 108 107 106 106 106 106 105 105 106 106 107 108 109 109 108 108 109 109 108 107 104 100 101 101 100 101 103 103 103 103 103 104 104 104 105 107 110 111 111 110 109 108 111 114
23 30 72 98 113 114 105 108 106 98 99 99 104 105 105 107 108 110 112 113 114 113 112 113 117 119 118 118 116 114 113 112 110 109 107 107 108 109 110 110 109 109 109 108 109 107 107 105 106 107 106 107 108 109 109 108 108 108 109 109 111 108 106 105 103 101 101 102 102 103 102 103 103 102 103 104 107 109 111 112 111 109 110 112 111
69 85 105 102 108 105 106 119 125 120 110 101 106 105 105 108 112 113 115 120 123 123 121 120 121 123 122 120 119 117 116 114 112 108 107 109 110 110 110 110 110 111 111 110 111 110 109 106 106 108 109 109 109 110 110 109 108 108 108 107 107 106 107 109 107 107 107 106 106 106 104 102 102 102 103 104 106 107 109 111 112 112 114 116 114
95 121 116 111 108 99 102 114 125 130 126 118 111 104 105 109 114 115 117 121 125 127 127 126 127 127 125 123 121 119 118 116 113 110 110 111 110 110 111 111 112 112 111 111 112 112 110 109 108 109 111 111 112 112 112 112 112 110 109 106 105 103 102 102 106 111 113 113 112 110 107 106 106 106 106 107 106 107 108 110 113 116 118 118 118
105 125 114 113 104 100 105 107 120 126 123 118 106 99 103 108 114 118 121 124 126 129 130 131 132 131 128 126 125 123 120 119 116 113 113 112 111 112 113 112 112 112 112 113 114 114 113 113 113 112 113 114 115 113 114 115 116 113 110 109 107 106 100 96 101 111 115 115 113 111 111 112 111 110 109 108 107 107 108 111 113 117 119 119 119
112 120 108 98 89 93 104 110 115 108 107 105 94 85 93 107 114 120 123 126 128 129 132 135 135 134 131 128 128 126 124 123 119 117 115 114 115 115 115 114 113 113 113 113 113 114 114 114 115 116 116 118 117 116 116 118 118 115 113 113 111 108 103 97 101 111 117 117 116 114 114 113 111 110 110 110 109 109 109 110 111 114 116 116 118
108 107 95 80 79 89 96 100 99 95 98 96 92 84 86 103 114 120 123 125 126 129 135 137 137 136 134 132 129 128 128 127 124 119 117 118 118 117 117 116 114 113 111 111 112 113 114 114 116 118 118 119 120 120 121 121 122 119 115 115 113 109 104 103 106 112 117 119 120 118 116 114 113 113 115 114 113 112 109 109 110 113 114 117 119
105 101 92 81 81 87 87 83 75 79 83 80 86 99 103 107 122 126 124 122 122 129 136 138 139 138 137 136 133 131 131 130 128 124 123 122 118 116 117 116 114 113 110 109 110 112 114 115 116 118 119 120 123 125 125 124 125 122 118 115 113 107 103 106 113 120 119 120 122 122 121 119 120 120 119 117 115 113 111 110 111 112 113 116 120
107 103 99 93 89 89 87 82 77 80 75 69 84 118 151 141 144 139 132 123 121 129 136 139 141 140 139 139 137 136 136 134 132 130 128 122 118 119 120 117 115 112 109 107 109 112 114 115 116 117 119 123 126 128 128 128 127 125 121 116 112 108 103 107 122 134 128 124 126 124 124 124 124 122 122 121 119 118 116 115 113 112 113 115 118
105 103 103 98 94 95 91 83 82 87 79 69 90 131 178 189 169 145 138 130 123 128 135 142 145 144 142 142 140 140 141 141 138 136 128 118 121 124 121 119 117 114 111 109 109 111 113 115 116 117 120 125 128 130 131 131 130 127 122 116 112 109 111 118 131 140 134 130 130 125 126 128 126 126 128 127 124 123 122 120 118 116 114 113 116
112 108 107 104 102 98 88 80 75 72 66 59 101 151 184 189 183 157 147 141 132 130 135 145 151 150 147 147 146 145 146 147 147 142 127 119 126 127 123 123 122 120 117 113 110 110 111 113 117 120 123 126 130 132 132 133 131 127 120 108 105 115 126 131 134 141 138 135 136 131 131 132 131 133 132 129 127 126 125 124 122 118 113 111 113
121 116 113 115 112 102 89 79 73 64 47 28 131 174 187 179 180 172 152 147 144 136 138 150 157 157 154 153 152 152 153 152 153 147 128 125 130 128 126 127 127 126 123 118 115 114 113 115 118 122 125 128 131 133 133 133 131 123 109 95 101 126 143 142 139 141 143 141 141 138 136 138 139 138 134 132 130 127 127 127 125 121 117 114 116
124 119 119 130 106 105 114 95 86 86 61 290 217 181 183 178 178 176 160 158 156 147 148 155 164 166 164 162 161 160 160 159 158 148 130 132 133 130 131 132 132 131 127 124 122 120 117 115 118 121 126 130 133 134 134 133 128 115 99 94 106 123 144 150 145 144 148 146 144 144 141 143 144 139 137 136 132 128 130 130 128 126 123 121 120
129 128 123 105 43 82 143 125 134 148 192 233 233 190 184 184 181 183 178 170 163 158 161 166 170 174 175 173 172 169 166 163 160 151 138 138 136 133 137 136 136 134 131 130 126 123 120 116 116 119 125 132 135 135 137 133 124 109 96 100 112 122 138 149 148 149 154 150 146 147 144 142 140 138 139 137 131 131 132 131 129 127 127 127 125
130 129 114 80 6 348 284 137 165 178 233 238 236 215 192 190 189 194 192 177 169 169 173 175 174 175 178 177 177 173 168 163 160 155 145 142 138 139 141 139 139 137 135 133 128 127 124 121 119 119 125 132 136 138 139 133 122 108 98 105 118 127 138 148 151 153 155 152 151 150 144 140 140 139 140 137 134 134 134 133 130 128 129 131 131
122 112 104 110 347 339 327 294 273 278 273 256 247 222 197 201 204 198 189 184 179 181 181 177 178 172 167 168 172 169 165 163 160 154 148 145 143 143 143 142 142 140 139 135 131 130 128 127 125 124 127 132 136 140 140 135 125 110 101 109 126 134 141 151 156 156 153 154 155 153 147 143 144 142 141 138 135 134 134 134 131 131 131 133 135
117 108 106 116 88 10 6 2 13 3 343 321 290 247 210 213 207 196 187 186 183 187 187 179 179 167 159 158 161 162 161 161 157 155 152 149 149 148 145 144 145 144 142 137 137 135 133 133 129 129 130 132 136 140 140 138 129 114 105 113 134 143 147 155 159 156 155 156 156 155 150 146 147 144 142 139 135 135 136 135 134 134 133 134 137
112 112 118 117 94 23 12 39 40 34 29 22 6 1 330 261 207 202 190 185 182 186 188 176 170 163 163 161 158 157 156 161 159 157 157 154 154 153 147 147 148 148 145 141 143 141 140 137 133 133 132 132 134 138 140 140 130 114 109 116 138 153 155 159 158 155 157 159 157 156 150 146 146 143 142 139 136 137 137 137 136 136 138 138 138
85 82 88 91 77 5 358 23 14 21 29 35 34 23 10 352 313 230 194 181 182 187 188 171 163 165 170 166 161 158 153 160 165 162 163 160 159 157 151 149 150 149 148 146 146 147 147 142 136 132 131 131 134 138 141 141 126 109 110 118 138 155 161 163 158 153 157 159 157 155 151 148 145 142 143 139 137 139 138 139 139 140 141 141 142
67 60 59 67 66 24 30 34 19 12 5 15 26 22 13 358 351 334 230 167 178 185 188 174 163 168 180 181 172 165 157 162 169 170 171 168 164 162 157 154 153 148 144 144 146 149 150 147 138 129 129 128 133 139 140 138 119 105 112 120 137 152 161 164 158 148 149 156 156 153 152 149 144 144 145 141 139 140 140 142 143 144 143 141 144
66 59 58 64 59 43 41 40 34 27 8 357 359 1 360 354 358 356 9 40 207 187 185 171 161 171 189 198 184 176 167 168 175 178 180 178 175 171 166 163 158 146 139 140 144 150 152 151 142 130 126 122 131 137 138 134 114 107 114 122 138 150 159 163 158 149 147 155 156 153 154 150 145 147 147 143 141 141 143 145 145 146 144 143 144
72 67 65 66 62 53 45 43 36 28 20 11 2 359 352 344 344 349 5 13 358 226 216 177 169 180 194 197 186 186 180 177 180 186 191 190 189 186 176 171 164 147 138 140 143 148 151 153 151 140 127 123 129 135 138 133 114 109 118 125 138 149 159 163 159 153 152 157 157 155 155 150 148 150 148 146 144 143 146 147 147 146 146 146 146
73 69 66 63 62 60 54 53 46 32 24 19 15 10 360 349 327 318 332 0 0 306 297 227 203 195 202 200 186 189 192 194 191 193 200 203 202 200 191 178 173 160 142 140 142 145 149 152 157 154 142 135 135 141 143 135 116 108 122 134 141 150 159 163 160 156 156 159 158 157 156 151 150 151 150 149 147 146 147 148 149 148 149 150 149
72 68 63 58 57 60 62 61 53 47 41 30 17 8 4 0 336 298 294 311 331 293 296 270 236 217 217 216 199 195 196 201 202 202 205 210 212 209 207 192 177 172 156 146 143 143 150 155 161 162 159 151 146 150 147 138 122 101 112 137 146 155 163 164 161 157 158 159 157 158 156 152 152 153 152 152 149 148 149 151 153 153 153 153 151
76 70 60 52 48 50 54 59 54 50 51 49 32 18 14 6 356 322 286 281 288 276 272 271 250 236 232 226 217 209 201 199 205 211 210 211 215 215 217 207 188 188 179 160 150 144 152 163 168 168 171 165 154 156 151 143 127 93 91 127 149 160 164 163 158 158 160 158 157 159 156 154 155 154 154 154 153 152 152 155 158 158 156 155 154
74 65 54 45 40 41 41 48 55 53 54 53 48 43 39 17 357 347 317 289 277 260 250 253 249 244 245 236 226 221 216 215 214 214 215 215 218 219 217 215 207 203 197 183 166 154 159 173 177 177 181 176 162 161 155 145 129 93 98 133 154 162 163 161 157 158 158 155 157 160 157 156 157 156 156 157 156 155 155 158 161 160 159 158 158
68 60 53 44 34 33 33 38 43 45 49 49 52 53 48 38 15 353 351 331 289 262 248 249 250 248 250 246 236 232 232 234 223 211 216 221 223 223 218 217 215 211 208 201 189 171 171 179 194 194 189 185 170 172 171 152 136 111 118 140 158 164 164 161 156 157 156 151 156 163 159 158 160 158 158 159 159 159 160 162 164 166 165 161 161
66 58 55 48 36 30 30 34 36 35 36 37 42 44 43 43 36 15 359 352 320 279 256 252 255 255 254 247 239 237 233 235 223 209 215 223 226 228 223 220 215 213 214 210 206 190 178 175 213 206 198 200 177 176 184 169 159 141 132 141 159 168 166 160 155 157 155 151 155 165 163 160 162 160 160 162 162 164 164 166 169 170 168 163 161
64 57 54 49 39 33 31 33 36 33 29 28 31 32 34 34 34 31 13 352 331 306 274 259 258 258 256 240 233 236 237 237 226 207 210 221 225 228 227 225 218 214 214 214 215 203 183 176 266 251 241 240 215 199 192 176 168 159 144 143 163 173 170 162 158 158 157 156 158 166 168 164 163 161 163 164 164 167 166 168 174 173 168 164 162
62 56 51 43 37 36 33 35 39 37 33 32 30 28 27 27 28 30 23 3 341 320 301 281 265 258 259 247 233 236 240 241 236 215 206 215 226 227 226 226 219 216 215 213 216 211 201 207 257 260 260 259 245 235 209 183 169 164 149 142 165 173 171 165 161 159 159 161 162 169 172 168 165 164 167 168 168 170 169 170 174 174 169 165 163
63 57 48 37 34 36 32 35 40 38 38 38 34 31 27 26 25 22 22 12 357 341 324 308 289 266 260 261 246 241 241 239 241 228 213 209 218 224 221 221 220 217 215 213 212 212 222 234 252 257 254 255 246 244 220 192 176 168 154 146 165 171 170 169 166 163 162 165 168 174 176 171 169 169 170 172 175 176 175 174 175 175 172 168 164
66 60 50 37 33 34 32 35 37 34 35 35 32 34 32 30 30 25 23 18 5 355 346 329 316 297 272 269 263 253 244 240 242 239 227 213 210 219 216 217 223 220 214 209 203 205 228 241 245 242 241 244 225 213 203 188 172 166 158 157 171 173 171 173 172 167 166 170 174 179 179 175 174 174 174 174 177 180 180 178 177 178 176 172 169
70 65 53 40 36 34 32 33 33 28 27 27 25 29 31 32 34 33 30 25 14 5 -0 349 333 321 301 284 277 264 248 244 243 243 240 225 220 222 216 212 219 223 219 210 204 210 229 232 226 221 220 215 196 187 180 173 168 170 166 169 176 175 174 176 177 173 171 176 180 182 180 177 176 176 177 177 180 183 183 184 183 183 181 178 178
74 70 55 44 41 37 34 31 30 26 22 20 17 16 22 27 31 34 32 24 17 12 7 359 342 324 310 296 287 274 255 248 246 243 243 235 231 229 222 216 215 216 213 206 206 207 211 212 207 210 202 191 192 184 172 168 167 172 171 171 178 179 178 180 184 179 178 182 182 182 179 176 176 177 180 182 185 186 186 189 188 187 186 184 184
77 70 57 50 45 39 37 32 29 28 22 17 14 9 9 18 26 31 33 28 19 12 6 -0 350 332 311 298 293 284 264 251 248 245 242 239 235 233 230 225 218 214 208 196 198 200 202 210 211 210 194 181 189 179 171 173 173 177 174 173 179 182 181 183 191 190 187 186 185 184 181 178 177 180 186 188 190 190 190 192 191 192 190 188 188
75 66 58 54 49 42 39 34 32 32 25 18 13 7 3 9 19 26 32 33 28 19 12 5 357 347 325 304 292 287 274 258 253 249 244 244 240 235 235 230 221 220 222 214 207 208 212 217 218 215 201 183 182 174 175 187 185 187 184 179 182 185 186 186 192 198 199 192 188 188 187 185 184 186 192 193 191 191 193 196 197 196 192 193 191
72 61 57 54 50 45 39 33 33 36 29 20 12 6 5 8 13 21 27 32 33 27 22 18 7 356 346 326 301 285 277 269 263 256 249 247 245 239 237 234 226 224 230 227 221 219 214 209 200 201 206 196 183 169 177 197 196 193 188 186 188 186 189 190 188 197 206 201 194 193 194 192 191 192 196 197 194 193 195 198 204 204 197 197 194
71 56 54 55 49 46 42 35 34 35 29 21 13 6 5 9 12 17 23 31 36 32 25 24 19 8 358 348 328 298 278 271 267 261 255 247 245 243 238 237 234 231 230 226 223 216 206 204 190 185 201 206 189 167 173 188 188 190 190 189 190 184 189 194 189 191 203 208 203 197 198 198 196 197 200 200 198 197 197 200 206 209 203 201 200
64 49 54 56 48 45 44 40 39 36 29 23 16 8 5 9 11 15 23 30 35 34 23 18 21 17 6 358 347 325 294 277 267 263 261 252 246 244 240 237 236 235 226 218 216 206 198 200 192 187 189 196 193 174 174 179 172 179 184 181 179 181 194 200 196 191 194 206 212 206 201 202 204 204 204 204 202 200 203 205 208 210 207 206 206
57 48 54 51 44 43 43 46 47 36 28 23 17 11 8 9 9 11 15 20 26 27 22 14 17 19 11 2 350 337 318 292 276 267 264 258 250 246 243 238 234 233 225 215 212 205 198 194 183 181 179 175 181 178 177 176 164 159 168 178 177 178 196 204 204 202 196 198 210 215 209 206 211 211 209 208 206 206 209 214 214 211 209 208 209
63 55 51 47 44 45 46 50 47 33 27 23 17 13 10 8 8 7 6 10 15 16 16 14 15 20 18 8 356 340 327 310 291 272 262 261 256 249 244 239 232 227 228 224 217 209 201 192 178 177 184 179 174 175 180 171 156 145 152 169 163 153 184 208 211 210 207 202 206 216 216 214 216 215 212 210 211 212 212 215 219 218 214 210 210
68 58 53 54 50 50 50 49 40 30 27 22 14 9 8 5 5 6 6 10 16 14 12 11 12 17 18 11 3 347 330 319 308 285 266 262 262 253 242 239 234 224 226 227 220 211 202 195 183 176 180 182 178 176 177 170 152 145 150 137 102 121 178 219 216 211 210 209 211 214 217 220 222 221 217 214 211 213 212 211 217 220 217 214 215
68 58 60 62 57 58 56 47 37 29 25 20 12 7 2 359 2 9 13 16 21 19 17 16 12 12 14 12 6 354 338 323 315 301 276 262 260 254 242 238 232 220 219 218 214 209 203 199 192 180 171 169 176 179 181 178 159 144 136 126 98 96 181 227 222 215 212 212 216 213 213 223 227 226 224 221 216 213 212 212 214 213 213 216 220
72 63 67 68 69 72 61 47 38 28 23 18 12 7 3 360 359 8 16 17 20 21 22 23 16 10 9 10 5 357 344 326 316 306 282 261 252 249 246 240 229 219 219 216 209 205 203 200 196 190 176 161 165 179 186 184 167 154 135 86 94 94 214 207 190 215 219 219 219 212 212 223 226 225 225 226 225 220 215 214 214 209 208 216 223
82 75 73 77 84 82 63 47 38 29 23 17 11 7 9 11 5 7 14 14 14 16 16 14 12 9 7 7 6 0 348 331 316 304 280 258 246 241 242 239 229 220 220 218 213 208 206 203 198 194 187 176 172 180 187 188 179 174 169 136 116 130 231 163 157 205 218 222 224 216 215 221 220 221 224 227 229 227 221 217 217 215 212 218 225
93 88 79 84 93 84 62 48 40 32 25 18 12 8 12 17 14 13 15 12 9 8 5 1 1 3 4 6 8 7 358 341 321 302 275 251 241 236 235 233 225 220 217 215 215 213 208 206 203 198 198 197 190 183 186 192 193 190 182 162 176 250 215 148 146 221 215 222 228 221 220 221 218 219 223 227 229 228 226 224 223 220 218 221 225
105 96 84 91 95 80 62 51 43 36 27 18 13 12 15 16 14 14 15 14 7 3 4 4 2 1 3 5 8 12 8 355 334 315 289 246 233 233 233 229 222 217 213 211 212 213 210 208 207 203 204 203 198 189 185 190 196 197 193 188 214 249 209 163 165 176 191 219 223 219 221 222 220 221 223 226 228 229 228 227 229 228 226 226 227
112 100 93 100 95 78 63 54 47 38 29 20 14 16 18 14 11 11 12 15 9 3 6 10 8 3 4 6 7 11 13 6 352 338 330 254 232 233 232 228 223 216 211 210 210 210 210 207 204 204 203 202 202 197 188 187 191 194 196 204 223 241 198 182 190 182 157 188 213 218 221 222 223 222 224 225 226 229 230 228 230 231 232 231 230
113 101 98 99 90 77 63 52 46 40 30 20 16 19 17 13 12 11 11 11 8 4 6 10 8 5 3 5 8 10 13 12 6 351 347 324 258 238 230 228 222 213 209 211 210 209 207 204 201 201 200 199 201 201 196 194 193 190 194 206 216 215 185 194 203 198 181 152 191 222 212 215 227 225 224 225 224 227 231 231 232 233 234 235 233
115 102 96 97 92 75 59 49 45 45 32 21 22 26 20 13 13 16 16 12 6 5 7 8 5 3 2 2 6 10 11 13 13 9 9 2 294 253 237 232 221 211 208 210 208 205 205 206 206 204 202 200 200 203 205 203 198 193 197 205 205 185 174 188 200 205 210 180 181 206 197 197 214 223 223 224 223 224 227 231 232 233 236 237 236
119 105 97 103 98 76 59 53 55 60 41 27 27 30 24 16 14 16 17 13 7 6 6 3 1 0 358 357 2 7 10 12 15 17 23 31 321 260 236 231 218 206 208 212 207 202 202 207 210 206 204 205 203 205 206 206 204 201 204 211 210 201 189 185 193 203 216 212 174 182 197 200 208 219 222 222 223 223 225 229 229 231 235 237 238